sat.trackr.live / text

‹ back to catalog

STARLINK-36888

NORAD 68004 · 2026-039U

PAYLOAD ACTIVE UNKNOWN

§ Identity

Operator
Country
US
Launch date
2026-02-27
Launch site
AFETR
Launch vehicle
Mass (kg)
RCS (m²)

Purposes: comms

External: N2YO · Heavens-Above · Gunter

§ Orbital elements

Epoch: 2026-05-24T22:59:53.517120Z

Period
94.27 min
Inclination
43.0001°
Eccentricity
0.0001007
Mean motion
15.27596326 rev/d
Perigee alt
482.3 km
Apogee alt
483.7 km
Semi-major
6,861.1 km
B*
5.4742e-4
RAAN
338.5571°
Arg perigee
271.1878°
Mean anomaly
88.8858°
Rev number
1,336

§ Raw data

STARLINK-368881 68004U 26039U   26144.95825830  .00014839  00000+0  54742-3 0  99942 68004  43.0001 338.5571 0001007 271.1878  88.8858 15.27596326 13366

JSON: /api/v1/satellites/68004 · /tle

For live sub-satellite position, see the globe view (requires WebGL).

§ Visibility from observer

Set your observer location to see the next 7 days of passes ≥ 10°. The values pass through the URL so the page stays shareable.

No JS? Fill the form by hand. The geolocation button needs JavaScript.